Regional Weather Roundup
Issued by NWS Upton, NY

Current Version | Previous Version | Text Only | Print | Product List | Glossary On
Versions: 1 2 3 4 5 6 7 8 9 10 11 12 13 14 15 16 17 18 19 20 21 22 23 24 25 26 27 28 29 30 31 32 33 34 35 36 37 38 39 40 41 42 43 44 45 46 47 48 49 50
000
ASUS41 KOKX 030008
RWROKX

REGIONAL WEATHER ROUNDUP
NATIONAL WEATHER SERVICE NEW YORK NY
700 PM EST FRI DEC 02 2016

NOTE: "FAIR" INDICATES FEW OR NO CLOUDS BELOW 12,000 FEET WITH NO
SIGNIFICANT WEATHER AND/OR OBSTRUCTIONS TO VISIBILITY.

NYZ071-072-176-178-NJZ106-104-030100-
NEW YORK CITY METRO AREA

CITY           SKY/WX    TMP DP  RH WIND       PRES   REMARKS
Central Park   MOCLDY    47  27  45 W13G22    29.92R
Wall St Helipt MOCLDY    48  31  51 W16G24    29.91R
Bronx Bot Gard NOT AVBL
LaGuardia APRT MOCLDY    49  28  44 W15G28    29.89R
Kennedy INTL   PTCLDY    49  27  42 W16G28    29.91R
Breezy Point     N/A     46 N/A N/A W17G28      N/A
Newark/Liberty MOCLDY    47  28  47 W14G28    29.91R
Teterboro      MOCLDY    47  27  45 W10       29.90R
$$

NYZ177-179-078>081-030100-
LONG ISLAND NEW YORK

CITY           SKY/WX    TMP DP  RH WIND       PRES   REMARKS
Jones Beach      N/A     46 N/A N/A W16G23      N/A
Matinecock PT    N/A     48 N/A N/A W25         N/A
Farmingdale    PTCLDY    47  27  45 W14       29.88R
MacArthur/ISP  MOCLDY    46  28  49 W12       29.87R
Shirley        PTCLDY    47  28  47 W10       29.87R
Westhampton    MOCLDY    46  28  49 W9        29.86S
Southampton    NOT AVBL
Bridgehampton  NOT AVBL
East Hampton   CLOUDY    46  31  57 W6        29.83S
Montauk          N/A     49  33  54 W12       29.83S
$$

NYZ052-065-067-030100-
HUDSON VALLEY

CITY           SKY/WX    TMP DP  RH WIND       PRES   REMARKS
White Plains   MOCLDY    46  27  47 W10       29.86R
Newburgh       MOCLDY    41  36  81 NW14      29.88R
Montgomery     CLOUDY    42  34  73 N13       29.87R
Poughkeepsie   CLOUDY    43  29  57 W14G25    29.87R
Albany         MOCLDY    42  29  59 W10       29.81S
$$

NJZ001-105-106-008-010-013-015-019>022-104-030100-
NEW JERSEY

CITY           SKY/WX    TMP DP  RH WIND       PRES   REMARKS
Newark/Liberty MOCLDY    47  28  47 W14G28    29.91R
Teterboro      MOCLDY    47  27  45 W10       29.90R
Caldwell       PTCLDY    46  27  47 W9        29.91R
Somerville     PTCLDY    45  27  49 W8G18     29.91R
Linden           N/A     46  28  48 W12       29.92R
Sussex         CLOUDY    44  29  55 VRB6      29.89R
Andover          N/A     43  28  55 VRB5      29.90R
Trenton        CLOUDY    45  26  47 W13G22    29.95R
Millville      MOCLDY    43  30  60 W15G24    30.02R
Atlantic City  PTCLDY    44  26  49 W14G24    30.00R
Wrightstown    CLOUDY    45  27  50 W12       29.94R
Toms River     CLOUDY    45  28  51 W13       29.96R
Belmar         CLOUDY   N/A N/A N/A W15G22    29.94R
$$

PAZ047>061-062-071-030100-
EASTERN PENNSYLVANIA

CITY           SKY/WX    TMP DP  RH WIND       PRES   REMARKS
Philadelphia   MOCLDY    45  27  49 W20G26    30.01R
Allentown      CLOUDY    44  27  51 W14G28    29.95R
Scranton       CLOUDY    41  30  65 W12       29.91R
$$

CTZ002-004>006-009-010-012-RIZ004-006-007-MAZ004-011-015-030100-
SOUTHERN NEW ENGLAND
 IN CT

CITY           SKY/WX    TMP DP  RH WIND       PRES   REMARKS
Bradley INTL   PTCLDY    42  29  59 W12       29.81S
Hartford       CLOUDY    45  31  58 W6        29.83R
Danbury        PTCLDY    42  30  62 W10       29.86S
Wtrbury/Oxford MOCLDY    39  30  70 W7        29.84R WCI  34
Bridgeport     CLOUDY    48  30  49 W14G23    29.86R
Meriden        CLOUDY    44  33  65 VRB5      29.85R
New Haven      CLOUDY    46  31  55 NW10      29.85R
Chester        MOCLDY    43  32  65 NW15G23   29.83R
Groton         CLOUDY    50  32  50 W12       29.82R
Wilimantic     CLOUDY    46  31  55 W3        29.81R

 IN RI

CITY           SKY/WX    TMP DP  RH WIND       PRES   REMARKS
Providence     MOCLDY    46  27  47 W8        29.79S
Block Island   CLOUDY    48  32  53 W15G28    29.81S
Westerly       MOCLDY    48  28  46 VRB7      29.82R
 IN MA

CITY           SKY/WX    TMP DP  RH WIND       PRES   REMARKS
Boston         PTCLDY    44  30  57 SW10      29.75S
Worcester      PTCLDY    39  26  59 W17       29.74S WCI  30
Westfield      PTCLDY    41  30  65 SW7       29.80S
Provincetown   CLEAR     46  32  58 W17G25    29.75S
Nantucket      CLOUDY    47  33  58 W8        29.79S
$$

ANZ330-335-338-340-345-350-353-355-030100-
COASTAL MARINE OBSERVATIONS


STATION/POSITION TIME  SKY/WX   TEMP    WIND        PRES    VSBY  WAVE
                                AIR SEA DIR/SP/G                  HT/PER
                 (UTC)          (F)     (DEG/KT/KT) (MB)    (MI)  (FT/S)
NY HARB ENTRANCE 2350            49 54  280/ 23/ 29 1012.1          4/ 4
20 S FIRE ISLAND 2350            50 55  280/ 25/ 29 1011.4          6/ 5
GREAT SOUTH BAY  2300            49 45                N/A
23 SSW MONTAUK P 2350            51 56  270/ 21/ 27 1010.4          5/ 6
15 E BARNEGAT LI 2300               54                N/A           4/ 4
HUDSON CANYON    2250            51 59              1011.9          7/ 6
KINGS POINT      NOT AVBL
EXECUTION ROCKS  2315            49     260/ 16/ 25   N/A
CENTRAL LI SOUND 2300            50 51  270/ 19/ 25   N/A           3/ 4
EASTERN LI SOUND NOT AVBL
ROBBINS REEF     NOT AVBL
$$


>>>>>>>>>>>>>>>>>>>>>>>>>>>> KEY <<<<<<<<<<<<<<<<<<<<<<<<<<<
>                                                          <
>     SKY/WX - Sky Condition/Present Weather               <
>     TMP    - Temperature in Fahrenheit                   <
>     DP     - Dew Point in Fahrenheit                     <
>     RH     - Relative Humidity in Percent                <
>     WIND   - Direction (from) and Speed in MPH           <
>     PRES   - Mean Sea Level Pressure (inches of Hg)      <
>     WCI    - Wind Chill Index                            <
>     VSB    - VISIBILITY IN MILES                         <
>     HX     - HEAT INDEX                                  <
>     TC     - TEMPERATURE IN CELSIUS                      <
>     VRB    - VARIABLE WIND DIRECTION                     <
>                                                          <
>>>>>>>>>>>>>>>>>>>>>>>>>>>> KEY <<<<<<<<<<<<<<<<<<<<<<<<<<<



USA.gov is the U.S. government's official web portal to all federal, state and local government web resources and services.